Wind_Speed
9 9 8 7 6 6 7 8 8 7 7 6 5 4 4 3 3 3 3 3 4 4 3 3 2 1 2 3 4 4 2 1 2 4 6 7 7 6 6 6 7 8 9 10 11 12 12 13 13 12 12 11 10 8 6 5 3 3 3 3 3 3 4 4 5 5 6 6 7 8 8 9 9 9 9 9 9 9 9 8 7 7 6 6 6
9 9 9 9 8 8 8 8 9 9 9 9 8 6 5 5 4 5 5 5 5 5 4 3 3 1 1 2 2 3 2 1 2 3 5 7 8 7 7 7 7 7 9 10 11 12 12 12 12 12 12 11 10 9 7 6 4 3 3 4 4 4 5 5 5 6 6 7 7 7 8 8 9 9 9 9 10 9 9 9 8 7 6 6 6
10 10 10 10 10 10 10 10 11 11 11 11 11 9 7 6 5 5 6 5 5 5 5 4 3 3 1 1 2 2 2 1 2 3 5 6 8 9 8 8 7 8 9 10 11 12 12 12 12 12 12 12 11 9 8 6 5 4 4 4 5 5 5 5 6 6 6 6 7 7 7 8 8 9 9 9 9 9 8 8 7 6 6 6 6
11 10 11 12 12 12 12 12 12 13 13 13 12 12 11 9 8 7 6 5 5 5 5 4 4 3 3 1 1 1 1 1 1 3 5 5 7 8 9 9 9 8 8 9 10 11 12 12 13 13 12 12 11 9 8 7 6 6 5 5 5 6 6 6 6 6 6 6 6 7 7 7 8 8 8 8 8 8 7 7 6 6 6 6 6
10 11 12 12 13 13 14 14 14 14 14 14 13 13 13 12 12 10 8 7 6 6 6 5 4 4 4 3 1 1 1 1 1 3 4 5 6 7 9 10 10 9 9 9 10 10 11 12 13 13 12 11 11 10 8 8 7 7 7 7 6 6 6 6 6 6 6 6 6 6 7 7 7 8 8 8 8 7 7 7 7 7 7 7 7
9 10 11 12 13 14 15 15 15 15 15 15 14 14 14 13 13 13 11 9 8 6 6 5 5 4 3 4 3 2 1 1 1 2 4 6 6 7 8 10 11 11 10 10 10 10 10 11 12 12 12 12 11 10 9 9 8 8 8 8 7 7 7 6 6 6 6 6 6 6 7 7 7 8 8 8 8 8 8 8 7 7 7 8 8
11 12 12 12 13 13 14 15 15 16 16 16 15 14 14 13 13 13 12 12 11 8 6 6 5 4 3 4 4 4 3 2 2 2 4 6 7 7 8 9 10 11 12 11 11 10 10 10 11 11 12 12 12 11 10 10 10 9 9 9 8 8 7 7 7 7 7 7 7 7 7 7 7 7 8 8 8 8 8 8 8 8 8 8 9
13 14 13 12 12 13 14 15 16 17 17 16 15 14 14 13 13 13 13 13 13 10 8 7 6 5 4 4 4 4 4 4 3 3 4 5 7 7 8 8 9 10 11 12 12 12 11 11 11 11 11 12 12 12 11 11 11 10 10 10 10 9 9 8 8 8 8 7 7 7 7 7 8 8 8 8 9 9 9 9 8 8 8 8 9
15 15 13 13 12 13 15 15 16 15 14 14 13 13 13 12 12 13 13 13 14 12 10 9 8 7 5 5 5 5 5 5 5 5 5 5 6 7 7 8 9 10 11 11 12 12 12 12 12 11 11 12 12 12 12 12 12 12 11 11 11 11 10 10 9 9 8 8 8 8 8 8 8 9 9 9 9 10 10 10 9 9 9 9 9
17 13 11 12 12 14 16 15 14 13 12 12 12 13 12 11 12 12 12 13 14 13 11 10 10 8 7 5 5 5 5 5 6 6 5 5 6 6 7 8 9 10 11 11 12 12 13 13 13 12 12 12 12 12 12 12 13 13 13 12 12 12 12 11 10 10 10 9 9 9 9 9 9 9 9 10 10 10 11 11 11 10 10 10 10
17 13 11 13 14 15 15 13 10 10 9 9 10 10 9 10 11 10 11 13 12 12 11 11 9 8 7 6 5 5 5 5 6 6 6 6 7 7 7 8 9 10 11 12 12 13 13 13 14 14 13 13 13 13 14 13 14 14 14 13 13 13 12 12 12 11 11 11 10 10 10 9 9 9 10 10 10 11 11 12 12 12 12 11 11
15 12 11 11 11 11 10 8 7 7 6 6 6 5 3 3 6 8 9 11 11 11 11 10 9 8 8 7 7 6 6 7 6 6 7 7 8 8 8 8 10 11 11 12 13 13 14 14 15 15 15 15 15 14 14 14 15 15 15 14 14 14 14 13 13 13 13 12 12 11 11 11 10 10 10 10 10 11 11 12 12 13 13 13 13
10 8 6 4 3 3 3 3 5 5 2 1 2 3 2 1 3 4 6 9 10 10 10 9 8 8 9 9 8 7 7 8 7 6 7 8 8 9 9 9 10 10 11 11 12 13 14 15 16 16 17 17 16 16 16 15 16 16 16 16 15 15 15 15 14 14 14 14 13 13 12 12 12 11 11 11 11 11 11 12 12 13 13 14 14
5 3 2 2 1 1 1 2 4 4 3 4 3 5 4 3 2 3 5 6 7 7 7 7 6 6 7 8 8 7 7 8 8 7 7 8 9 9 9 10 10 10 10 10 12 13 14 15 16 17 18 18 18 18 17 17 17 17 17 17 17 16 16 16 16 15 15 15 15 14 14 14 14 13 13 13 12 12 12 12 12 13 13 14 15
5 6 4 4 3 4 5 4 4 5 7 6 6 7 6 5 5 5 6 6 6 6 5 5 4 5 6 7 8 8 8 8 8 8 8 9 9 10 10 11 11 10 10 11 12 13 14 15 16 17 18 18 19 19 18 18 19 19 19 19 18 18 18 17 17 17 17 16 16 16 16 16 15 15 14 14 14 14 13 13 13 13 13 14 14
7 7 6 5 5 7 8 8 6 7 8 6 7 8 8 8 9 9 9 8 7 7 7 6 5 4 3 4 5 6 7 7 8 8 8 9 9 9 10 10 10 10 11 12 13 13 13 14 15 16 17 18 18 19 19 19 20 20 20 20 20 20 20 19 19 18 18 18 18 18 17 17 17 17 16 15 15 15 15 14 14 14 14 14 14
9 8 7 5 7 9 10 9 7 8 8 7 8 10 11 11 10 9 9 8 7 7 7 7 6 5 4 2 2 2 3 4 5 7 8 8 8 9 10 10 10 10 12 13 14 14 14 14 15 16 16 17 18 18 19 20 20 21 21 22 22 22 22 21 21 20 20 19 19 19 19 19 19 18 18 17 17 17 16 16 16 15 15 15 15
9 10 9 7 8 10 10 8 8 9 9 8 9 11 11 11 10 9 9 9 8 7 7 7 6 6 5 4 3 2 1 1 2 3 5 6 7 7 8 9 10 11 12 14 14 15 15 15 16 17 17 17 17 18 19 20 21 21 22 23 23 23 23 23 23 23 22 21 21 20 20 20 20 20 20 19 19 19 18 18 17 17 17 16 16
10 11 11 10 9 8 8 7 7 8 9 8 8 9 9 9 9 8 7 7 7 6 5 5 4 4 3 3 3 3 2 2 1 1 3 4 4 5 6 7 8 10 12 13 14 14 15 15 17 17 18 17 17 18 19 20 21 21 22 23 24 24 24 24 24 24 24 23 22 22 22 22 21 21 21 21 20 20 20 19 19 19 18 18 18
10 11 12 11 9 8 7 6 6 7 7 7 7 6 6 6 6 5 5 5 4 3 3 2 2 1 1 1 1 1 1 1 1 1 3 4 4 5 5 5 7 8 9 11 12 14 14 15 16 17 18 19 19 19 20 21 21 22 22 23 24 25 25 25 25 25 24 24 24 23 23 23 23 22 22 21 21 21 21 21 20 20 19 19 19
10 10 10 10 10 9 8 7 6 5 5 5 4 4 3 3 3 3 3 3 2 2 2 2 2 3 3 3 3 4 4 3 3 4 5 5 5 6 6 6 7 7 8 8 10 11 13 15 16 17 18 19 20 20 21 22 23 23 23 24 24 24 24 25 25 24 24 24 24 24 23 23 23 23 22 22 21 22 22 22 21 21 20 20 20
9 8 9 9 10 9 8 7 5 5 4 4 4 4 4 5 5 5 5 5 4 4 5 5 5 5 5 5 6 7 7 7 7 7 8 8 8 8 8 8 9 10 9 9 9 10 12 14 16 17 19 20 21 21 22 23 23 24 25 25 25 25 25 25 24 24 24 23 23 23 23 23 23 23 22 22 22 22 22 22 22 22 21 21 21
8 8 8 9 9 8 7 6 6 6 6 6 7 7 7 7 6 6 6 6 6 6 7 7 7 8 8 8 9 9 9 10 10 10 11 11 11 11 11 11 13 13 12 12 12 12 12 13 14 16 17 19 20 21 22 23 24 24 25 26 26 26 26 26 25 25 24 24 24 24 24 24 24 23 23 23 23 23 23 22 22 22 22 22 21
8 8 9 8 7 6 6 6 7 7 8 8 9 8 8 8 8 8 9 9 9 9 10 10 10 11 11 11 11 11 12 12 12 13 13 14 14 14 14 14 15 17 16 15 16 16 16 16 16 16 16 17 19 20 21 22 24 25 26 26 26 26 26 27 26 26 26 26 26 26 26 26 26 25 25 25 24 24 24 24 23 23 22 22 22
9 10 10 8 7 6 7 8 9 9 10 10 10 10 10 10 11 11 12 12 12 13 13 14 14 14 14 14 14 15 15 15 15 16 16 17 17 17 17 16 17 19 20 20 19 19 20 20 19 18 18 18 19 19 19 20 21 23 24 25 26 26 26 26 27 27 27 27 27 28 28 28 28 27 27 27 27 26 26 25 25 24 23 23 24
11 11 10 9 9 9 10 11 11 11 11 12 12 13 13 13 13 14 14 15 15 16 17 17 17 18 18 18 18 19 19 19 20 20 20 21 21 21 21 21 20 21 22 23 23 22 23 23 22 22 22 22 21 20 20 20 20 21 22 22 23 25 26 27 27 28 28 28 28 28 28 28 29 29 29 29 28 28 27 27 27 26 25 25 25
12 12 12 11 11 12 13 13 14 14 14 14 14 15 16 16 17 17 17 18 19 19 20 21 21 21 22 22 23 23 24 24 24 25 25 25 25 25 25 25 24 24 25 25 26 26 26 26 26 25 25 25 24 23 23 22 22 23 22 21 22 23 24 25 26 27 28 29 29 29 29 29 29 29 30 30 30 30 29 29 29 29 28 27 27
13 14 14 14 14 15 15 16 16 16 17 17 18 18 19 20 20 21 21 21 22 22 23 24 25 25 26 26 27 27 27 28 28 28 29 29 29 29 29 28 28 28 28 28 28 29 29 29 29 29 29 28 27 26 26 25 25 25 25 24 24 24 25 24 24 25 26 27 28 29 30 30 30 30 30 30 30 31 31 30 30 30 29 29 29
15 16 16 16 17 17 18 18 18 19 19 20 21 21 22 23 23 24 24 25 25 26 27 27 28 29 29 30 30 31 31 31 32 32 32 32 33 33 32 32 31 31 30 30 30 31 32 32 32 32 33 31 30 29 29 29 29 29 28 27 26 27 27 26 25 25 24 25 26 27 29 30 30 30 31 31 31 31 31 31 31 30 30 30 30
17 18 18 19 19 20 21 21 21 22 22 23 23 24 25 25 26 26 27 28 29 29 30 31 31 32 33 33 34 34 34 35 35 35 35 35 35 36 35 35 35 34 33 32 32 33 35 35 34 34 35 34 33 32 32 32 32 32 31 30 30 29 29 29 28 27 27 26 25 25 26 28 29 30 30 31 32 32 32 31 32 32 32 32 31
19 20 21 21 22 23 23 24 24 25 25 26 26 27 28 28 29 30 30 31 32 32 33 34 34 35 35 36 36 37 37 37 37 37 38 38 38 38 38 38 38 37 37 36 34 34 36 38 38 37 37 36 36 35 35 35 35 35 34 33 33 32 32 31 31 30 30 29 28 27 27 27 27 28 28 29 30 31 32 32 32 33 34 33 32
22 22 23 24 25 25 26 27 27 28 28 29 29 30 30 31 32 32 33 34 35 35 35 36 36 36 37 37 37 38 38 39 39 39 40 40 40 40 39 39 39 39 38 38 37 36 37 38 40 40 40 39 38 37 37 37 37 37 36 36 35 35 34 34 33 33 33 32 31 30 29 29 28 28 28 28 28 29 31 32 33 34 35 34 32
24 25 26 26 27 28 28 29 30 31 31 31 32 32 33 33 34 34 35 35 36 36 36 37 37 37 37 38 39 39 40 40 40 41 41 41 41 41 41 40 40 40 39 39 38 38 38 39 40 42 42 42 40 40 39 39 39 39 39 38 38 37 37 37 36 36 35 35 34 33 32 31 31 30 30 30 29 28 29 30 32 35 36 34 33
26 27 28 28 29 29 30 30 31 32 32 33 33 33 34 34 35 35 36 36 37 37 38 38 38 39 39 39 40 40 40 40 40 41 41 41 41 41 41 41 41 40 40 40 39 38 38 39 41 42 42 43 42 42 42 41 41 41 41 40 40 39 39 39 39 38 38 38 37 36 35 34 33 33 32 32 32 31 31 30 31 34 34 33 34
27 28 28 29 29 29 30 30 31 31 32 33 33 34 35 35 36 37 37 38 38 38 39 39 40 40 40 40 40 41 40 40 40 41 40 40 41 41 41 41 41 41 41 41 40 39 38 39 40 41 42 43 43 43 43 44 43 42 42 42 42 41 41 41 41 40 40 40 39 38 38 37 36 35 35 34 33 33 34 33 32 33 32 31 33
27 28 28 29 29 29 30 30 31 32 33 34 35 36 36 37 38 38 39 39 39 39 39 39 40 40 40 40 40 41 41 41 40 41 41 41 41 40 40 40 40 41 41 41 41 41 40 39 39 40 41 42 43 44 45 45 45 44 43 43 43 43 43 43 43 42 42 42 41 41 40 39 39 38 37 36 36 36 36 36 35 33 32 31 31
28 29 29 30 30 31 31 32 33 33 34 35 36 37 37 38 38 39 39 39 40 40 40 40 40 40 40 40 40 41 41 41 41 41 41 41 41 41 41 40 40 41 41 41 42 42 41 40 39 40 40 41 42 43 45 46 46 45 45 44 44 44 44 44 44 44 44 44 43 43 42 42 41 41 40 39 39 38 38 37 36 35 34 33 31
29 30 30 31 31 32 32 33 34 34 35 35 36 37 38 38 39 39 39 40 40 41 41 42 41 41 41 40 40 40 40 40 41 41 41 42 42 42 42 41 41 42 42 42 42 43 43 42 41 41 41 42 42 43 44 46 46 46 46 46 45 45 45 45 45 45 45 45 45 45 45 44 43 43 42 42 41 41 40 40 39 38 37 35 34
29 30 31 31 32 32 33 34 34 35 36 36 37 38 38 39 39 40 40 41 41 41 41 42 42 42 41 41 40 40 40 40 40 40 41 41 42 42 42 43 43 43 43 43 44 44 44 44 44 44 43 43 43 44 44 46 46 47 47 47 47 47 47 46 46 46 46 46 46 46 47 47 46 45 44 44 43 43 43 42 41 40 39 38 37
30 31 32 32 33 33 34 35 35 36 36 37 38 38 39 39 40 41 41 41 41 41 41 41 41 41 41 41 41 41 40 40 40 40 40 41 41 42 43 44 45 45 45 45 46 46 46 46 46 46 46 46 45 46 46 46 47 48 48 48 48 48 48 48 47 46 46 47 47 46 47 47 47 47 46 45 45 45 45 45 44 42 41 40 39
32 33 34 34 35 35 35 36 36 36 37 37 38 38 39 39 40 40 41 40 40 40 40 40 40 40 41 41 41 42 42 42 42 42 42 43 43 43 44 45 46 47 48 48 49 49 48 48 48 48 48 48 48 48 48 48 48 49 50 50 50 49 49 49 48 48 47 47 47 46 46 47 47 46 47 47 46 47 46 46 45 45 44 42 41
35 36 36 36 36 36 36 37 37 38 38 38 38 38 38 39 39 39 39 40 40 40 40 40 41 41 42 43 44 44 45 46 46 46 47 47 48 48 48 48 48 49 50 50 51 52 51 51 51 51 51 51 50 50 50 50 50 50 51 51 51 50 50 49 49 49 49 48 48 47 47 47 47 46 46 47 47 48 48 47 47 46 45 44 43
35 37 37 37 36 36 37 38 39 39 39 38 38 38 38 38 39 39 39 40 41 41 42 43 43 44 45 46 47 48 49 49 49 49 49 49 50 50 50 49 49 49 49 50 50 51 52 52 52 52 53 52 52 52 52 52 51 51 51 51 51 51 51 51 50 50 50 50 49 48 47 47 47 46 45 46 47 48 49 49 48 47 46 45 44
37 39 39 38 37 38 39 39 40 39 38 38 38 38 38 39 39 40 41 42 43 44 45 46 47 47 47 47 48 48 48 47 47 47 48 48 48 49 49 49 50 50 50 50 50 50 51 51 52 52 53 53 53 53 53 53 53 52 52 52 52 52 52 51 51 50 50 50 50 49 47 47 47 46 45 45 46 47 48 49 50 49 48 47 45
35 37 39 39 39 40 40 40 40 39 38 38 38 39 40 41 42 43 44 46 46 47 47 47 46 46 45 45 45 45 46 46 47 47 48 48 49 50 50 51 51 51 52 52 52 52 52 52 52 52 53 54 54 54 55 55 54 54 53 53 53 53 53 52 52 51 51 51 51 50 48 47 48 48 46 45 45 46 46 47 48 49 50 49 48
31 31 33 35 37 39 39 39 39 39 39 39 40 41 42 43 45 46 46 46 46 45 44 44 43 43 44 44 45 46 47 48 49 49 50 50 50 51 51 51 52 53 53 53 53 53 53 53 53 53 54 54 55 55 56 56 56 56 55 55 54 54 54 54 53 52 52 52 51 51 50 48 49 49 47 46 46 46 46 46 47 48 49 50 50
30 30 31 32 34 36 37 38 38 39 40 41 42 43 44 45 45 44 43 42 42 42 42 43 44 45 46 47 48 48 49 50 50 50 50 51 51 51 51 51 52 53 53 54 54 54 54 54 54 54 54 54 55 55 56 57 57 57 57 56 56 56 55 55 54 54 54 53 53 52 50 49 50 50 49 48 48 47 46 46 46 46 47 48 50
32 32 33 33 34 35 36 38 39 40 41 42 43 43 43 42 41 40 39 40 41 42 43 45 46 47 48 49 49 50 50 50 50 51 51 51 51 51 51 52 52 53 53 54 55 55 55 55 55 54 54 54 55 55 55 56 56 57 57 57 56 56 56 56 55 55 55 55 55 54 52 50 51 51 50 49 49 49 48 47 47 46 46 47 48
33 34 35 35 36 37 38 39 40 41 41 42 41 41 39 38 38 38 39 41 42 44 45 46 47 47 48 48 49 49 49 50 50 51 52 53 52 52 52 53 53 52 51 52 53 54 53 53 53 52 52 52 53 54 54 55 56 57 57 56 56 56 56 56 55 55 56 56 56 56 55 53 52 53 52 51 51 50 49 49 49 48 47 47 47
34 35 36 36 37 38 39 39 40 40 40 40 39 38 38 38 39 40 42 43 45 45 46 47 47 47 48 48 49 50 50 51 51 52 53 54 53 53 51 50 49 47 47 48 49 49 48 48 49 49 49 49 50 51 52 54 55 57 57 56 56 56 56 56 55 55 55 55 55 56 56 55 55 55 54 53 52 51 50 50 50 50 49 48 47
35 36 36 37 38 38 39 40 40 39 38 38 37 38 39 40 42 43 44 45 45 46 46 46 47 48 49 50 51 52 52 52 53 53 52 51 50 48 46 44 43 42 43 44 43 44 44 44 44 45 45 45 46 47 48 50 52 54 55 55 56 56 56 56 55 55 54 53 54 56 57 55 56 56 56 54 53 52 52 52 51 51 50 50 49
Wind_Direction
324 321 320 320 325 326 327 333 335 333 330 326 323 320 320 304 285 317 332 330 331 331 329 322 324 41 67 65 54 54 57 131 177 174 164 161 169 174 171 172 178 180 186 191 187 187 194 193 191 192 190 187 188 188 189 202 220 243 261 261 248 241 243 238 229 220 213 207 202 201 201 202 202 203 205 206 207 209 212 215 219 222 226 229 226
311 311 314 317 324 328 328 331 329 325 323 320 315 312 314 308 290 297 305 304 314 322 323 318 300 302 57 88 76 63 64 103 182 194 181 168 167 174 174 173 178 182 187 195 195 194 197 199 198 198 195 192 192 191 195 206 219 230 241 251 248 241 239 238 231 222 216 211 206 204 204 204 204 204 205 207 209 211 214 217 219 223 224 222 218
303 306 311 315 320 324 325 326 323 319 317 315 310 302 299 297 293 295 298 291 296 308 307 308 301 283 281 104 107 90 78 101 182 200 200 185 173 172 175 175 179 184 188 196 201 202 202 203 203 204 202 199 197 197 202 211 219 226 232 240 244 242 240 238 236 230 223 217 211 208 206 207 206 207 208 210 212 214 219 223 224 225 221 217 215
298 304 307 310 313 315 317 317 314 310 308 308 306 299 289 281 279 284 290 281 278 296 292 289 297 280 269 273 155 143 119 112 180 202 205 202 189 178 175 176 179 184 189 196 204 206 206 206 207 209 208 206 205 204 208 216 221 226 231 236 239 241 240 238 237 234 230 224 218 214 211 211 211 211 213 214 217 219 221 225 225 221 217 215 217
289 297 299 301 304 308 310 309 306 302 299 299 299 296 287 277 272 271 274 266 260 281 284 275 285 274 257 268 263 192 160 134 175 207 209 209 206 194 183 178 178 184 189 194 202 206 210 209 210 213 213 212 213 214 215 221 226 229 232 236 238 241 241 239 236 234 232 229 224 219 217 215 215 215 216 217 219 220 220 219 217 214 213 214 217
280 285 288 290 295 302 304 302 300 297 293 292 293 291 284 276 268 264 263 257 247 256 267 261 269 266 250 264 270 254 226 207 212 217 214 215 216 209 198 187 181 183 187 193 197 202 209 212 214 215 216 216 218 221 222 225 229 232 235 237 238 241 242 243 239 237 235 233 230 227 224 222 219 219 219 219 218 217 215 212 212 213 214 215 215
279 276 275 280 286 292 294 294 294 294 291 288 289 287 282 274 267 262 258 255 248 248 254 250 249 251 256 270 265 254 248 231 224 228 219 216 219 217 211 203 193 187 186 192 197 199 204 211 216 219 220 221 224 227 227 228 230 232 235 237 237 239 241 244 243 240 239 237 235 233 231 230 229 227 225 223 220 217 214 213 215 218 218 218 215
279 279 278 277 278 279 280 283 288 290 287 287 289 286 280 273 267 262 254 249 245 242 247 247 242 241 249 261 253 248 251 235 220 227 227 219 218 220 219 215 209 200 193 194 200 202 203 209 217 223 226 228 231 233 232 230 231 233 235 237 237 238 238 241 243 244 244 243 243 242 240 239 237 235 233 230 226 223 222 221 224 225 224 221 217
274 272 277 278 276 272 272 277 283 285 286 290 291 283 279 273 265 258 249 242 237 233 240 245 246 249 245 244 248 253 255 241 227 225 224 219 217 221 225 223 219 214 208 204 205 207 208 210 216 222 229 233 234 236 237 235 234 234 236 237 239 239 239 239 241 244 246 248 249 250 250 249 247 244 241 237 235 232 230 229 230 231 229 226 223
278 273 278 280 277 273 271 274 279 285 290 292 287 280 278 273 265 258 247 241 234 227 235 244 246 250 245 237 242 253 257 249 243 238 229 223 219 218 223 228 228 224 219 215 212 213 215 216 218 221 225 232 236 236 237 238 237 237 237 238 240 242 243 242 242 243 245 248 250 252 253 254 254 253 251 247 245 242 238 237 236 237 236 234 233
288 291 289 280 276 272 267 264 272 288 291 288 285 281 276 264 258 256 243 239 234 224 232 244 244 241 236 234 233 239 247 247 250 247 239 234 226 221 222 225 229 230 227 222 219 218 221 222 224 225 225 228 234 236 237 238 239 240 240 240 240 242 245 246 247 247 248 250 252 253 254 255 256 257 257 256 254 251 249 246 245 245 244 243 243
292 296 287 275 271 263 254 254 268 284 287 284 292 298 303 260 249 250 236 225 221 218 226 238 244 238 230 229 233 235 237 237 244 248 245 240 232 231 233 229 228 231 231 230 227 225 225 226 227 229 229 228 230 234 238 240 241 242 243 243 242 243 245 246 248 250 252 253 254 256 257 259 261 262 262 262 261 259 257 255 253 252 252 252 251
289 286 273 258 245 242 250 262 259 265 272 265 318 10 52 138 209 229 214 201 202 211 223 233 240 237 229 230 237 243 242 236 237 243 250 247 239 240 243 241 236 235 235 235 236 235 232 231 231 231 231 231 231 233 237 239 241 243 244 245 245 245 246 246 247 249 251 254 256 258 260 262 265 266 268 268 268 267 265 263 260 259 257 257 256
260 218 217 207 154 196 243 222 222 215 162 143 110 81 93 129 152 176 179 181 188 199 214 223 226 225 226 235 243 248 251 246 241 241 246 247 245 246 245 245 245 243 241 240 241 242 241 239 238 237 235 234 234 234 235 237 240 242 243 244 245 246 247 249 250 250 251 253 255 257 258 260 262 264 266 267 269 269 269 266 264 262 259 258 258
196 162 189 208 170 167 169 156 170 167 148 137 114 99 99 106 114 125 133 137 146 159 169 176 191 206 221 241 251 254 253 252 251 246 244 244 247 250 247 245 246 246 246 243 242 244 246 247 246 245 244 241 239 237 237 237 239 241 243 244 245 246 247 248 250 251 252 253 254 255 256 257 259 260 261 263 265 266 267 266 263 261 259 258 258
171 158 183 191 157 149 143 132 136 143 141 127 107 103 102 106 111 110 111 113 120 131 135 139 152 171 201 237 252 256 250 247 252 254 251 250 252 255 255 252 249 248 247 247 247 246 247 249 250 251 251 250 247 244 242 241 241 242 244 245 246 247 248 248 249 251 252 254 254 256 257 259 261 262 263 263 263 264 265 265 264 262 259 258 257
166 158 167 172 152 142 131 125 130 131 133 127 111 109 109 111 114 113 114 114 115 121 124 131 139 143 154 169 194 227 234 236 246 253 255 257 255 253 255 258 257 254 251 250 251 251 249 248 248 250 252 253 253 251 248 246 245 246 246 247 248 249 250 250 250 250 251 254 256 258 260 262 263 264 265 264 262 262 262 262 262 260 257 255 254
167 158 158 162 152 142 135 131 126 120 123 124 116 113 115 117 120 121 120 116 117 118 116 121 125 129 140 139 132 142 161 203 241 253 256 257 259 258 259 261 261 259 257 256 255 255 255 253 251 250 251 252 254 255 254 252 250 249 249 249 249 250 251 252 252 252 252 253 254 257 259 262 264 265 266 265 263 261 260 259 260 259 256 252 250
165 158 157 160 154 148 147 140 127 119 121 124 121 117 118 122 124 122 117 114 117 116 112 115 116 122 138 138 143 154 155 165 187 286 279 274 271 269 270 267 263 260 260 260 260 260 260 259 258 256 255 255 255 255 255 254 254 254 253 253 253 252 253 254 254 255 255 256 256 256 257 259 262 264 265 265 264 262 260 259 258 257 255 251 247
169 163 157 159 160 162 159 150 140 132 129 131 132 128 129 131 129 126 124 124 128 126 123 128 125 169 215 214 219 224 202 186 191 251 277 287 288 285 284 279 272 269 267 266 264 262 260 259 259 259 258 257 256 255 253 252 253 254 254 254 255 255 255 255 256 257 258 259 259 259 259 259 260 262 262 262 262 262 260 259 258 257 254 251 247
179 168 161 162 166 170 169 166 160 154 149 146 146 146 152 157 155 161 166 168 180 186 199 216 233 252 267 280 278 279 287 288 280 275 276 279 283 288 289 286 285 286 282 277 271 265 260 257 256 256 257 256 256 254 253 253 253 253 253 254 254 255 255 256 257 258 259 259 260 260 260 260 261 261 260 260 261 261 261 261 260 257 254 249 245
188 177 173 173 176 178 176 175 179 185 186 186 196 203 209 210 207 210 212 215 222 230 239 245 251 260 269 276 279 282 290 291 289 290 288 283 284 288 290 288 288 288 286 287 285 277 268 262 258 257 257 258 257 256 255 255 254 255 256 257 257 257 257 257 257 257 257 258 258 258 259 259 259 259 259 260 260 260 261 261 261 259 254 250 245
198 192 193 190 189 188 183 187 199 211 218 221 223 224 228 233 238 242 244 246 249 250 254 259 263 269 273 276 278 280 283 285 286 289 289 288 291 293 291 289 287 286 286 285 282 276 271 268 264 262 261 261 261 261 259 258 258 257 257 259 260 260 260 259 259 258 258 257 257 257 257 257 257 257 257 257 258 259 260 260 259 258 255 252 246
206 207 211 208 206 206 206 214 221 227 236 240 244 246 250 256 260 264 267 268 268 267 266 264 263 266 268 271 274 275 277 280 284 287 287 289 292 292 289 287 284 285 287 283 280 278 275 271 270 270 268 266 265 264 263 262 261 260 260 261 262 263 263 263 262 261 260 259 259 259 258 257 256 255 255 255 256 258 259 259 258 257 256 253 247
216 220 223 224 226 230 233 238 240 244 250 256 260 262 263 264 264 266 268 269 269 270 271 271 272 273 273 273 274 276 277 279 281 283 284 286 287 287 286 285 281 281 283 281 280 279 277 276 276 275 273 270 269 267 266 265 264 263 262 262 263 264 264 264 264 263 262 261 259 259 259 259 258 257 256 256 256 257 257 258 257 256 254 252 249
227 230 234 238 240 241 244 248 251 253 257 260 264 267 268 268 268 267 268 268 269 269 270 272 275 277 277 277 276 277 278 280 280 281 282 282 283 283 283 284 282 279 279 279 278 275 274 275 275 274 273 271 271 270 270 269 268 268 267 266 264 263 262 262 263 263 263 262 261 260 260 260 260 259 258 257 257 257 257 257 256 255 254 253 253
239 242 245 248 249 250 253 257 260 263 264 265 267 269 271 271 270 270 269 269 270 271 272 273 274 275 276 277 277 278 278 279 279 280 280 280 280 280 280 281 281 280 278 278 277 275 273 272 271 270 269 269 269 270 270 271 270 270 270 270 269 267 265 263 262 262 262 262 262 262 262 261 260 260 259 259 259 258 257 257 257 256 255 254 255
248 251 253 256 258 260 262 265 268 271 272 273 273 272 272 272 272 272 272 272 272 272 273 274 274 275 275 276 276 277 277 277 278 278 278 278 278 279 279 279 279 278 278 277 276 275 273 272 270 269 268 267 268 268 268 268 268 267 267 267 267 267 267 265 264 263 262 261 261 261 261 261 260 260 259 260 260 259 258 258 258 258 257 256 255
258 259 261 264 266 268 270 271 272 273 274 274 274 273 272 272 272 273 273 274 274 274 274 274 274 275 275 275 275 275 276 276 276 277 278 278 279 279 280 279 279 278 277 276 275 274 273 271 270 270 269 268 267 267 266 266 265 265 265 264 264 264 265 266 266 265 264 262 261 260 260 260 260 260 259 260 260 260 259 260 260 260 259 258 258
264 267 269 271 272 274 275 276 276 276 276 275 274 274 273 273 273 273 273 273 273 274 274 274 274 275 275 275 275 275 276 276 277 277 277 278 278 279 279 280 280 279 277 275 274 273 273 272 271 269 269 268 267 265 265 265 265 264 264 264 264 264 264 266 266 266 265 264 262 261 261 261 261 261 260 260 260 260 260 260 261 260 258 258 258
270 272 274 275 276 277 278 278 278 278 277 277 276 276 275 275 275 275 275 275 274 274 274 274 274 275 275 275 276 277 277 278 278 279 279 279 279 279 279 279 279 279 278 276 273 271 272 273 272 270 268 267 266 265 263 264 264 264 264 264 264 264 265 265 265 265 266 266 265 264 263 263 264 265 264 262 261 261 261 260 260 260 259 257 257
276 276 277 277 278 279 280 280 280 280 279 279 278 278 277 276 276 276 275 275 275 274 274 274 274 275 276 277 279 280 281 281 282 282 281 281 280 280 279 279 278 278 277 277 276 273 271 271 272 271 270 268 267 266 264 264 264 264 264 264 264 264 265 264 264 265 265 266 266 266 265 265 265 267 268 267 264 262 262 261 260 259 258 259 260
279 279 279 279 280 281 281 282 282 282 281 281 280 280 279 279 278 278 278 278 278 278 278 278 279 279 280 281 281 281 282 282 283 283 283 283 282 282 281 280 279 278 277 276 275 273 272 271 270 271 271 271 269 268 266 265 264 264 264 264 263 263 264 264 264 264 264 264 264 265 266 266 266 267 268 268 267 266 265 263 262 260 259 260 262
283 282 282 282 282 282 282 282 282 282 282 282 282 282 282 282 282 282 282 282 283 284 285 285 285 285 285 285 284 284 284 284 283 283 283 283 283 282 282 282 281 280 278 277 275 272 270 269 269 269 270 271 270 269 267 265 264 263 263 263 262 262 262 263 263 263 263 263 263 263 264 265 265 266 267 267 269 269 268 266 265 264 263 261 260
285 284 284 283 283 283 283 283 283 283 284 285 285 286 286 286 286 286 286 287 287 288 288 288 288 288 289 288 288 288 287 286 286 285 284 283 282 282 281 281 280 279 278 277 275 273 269 268 267 268 268 269 270 269 268 266 265 263 262 262 262 262 261 262 262 262 263 263 263 263 263 263 264 264 265 265 266 267 268 269 268 267 266 264 262
285 285 284 284 284 285 285 286 286 287 288 288 289 289 289 289 289 289 290 290 290 290 289 289 289 289 289 289 288 288 287 286 285 284 284 283 282 281 280 278 278 276 276 275 275 273 271 268 267 266 266 266 268 268 268 268 266 265 263 262 262 262 262 261 261 261 262 262 263 263 263 263 263 263 264 264 265 265 266 268 270 270 270 268 266
286 286 286 286 287 288 288 289 289 289 290 290 290 290 290 290 290 290 291 291 291 291 291 290 290 289 289 288 287 286 286 285 284 283 282 281 280 279 278 277 276 275 274 274 274 273 272 271 269 268 267 266 266 266 267 268 267 267 266 264 263 262 262 261 261 261 261 261 261 262 262 261 262 262 262 263 263 264 265 266 267 268 268 268 267
288 288 288 289 289 290 290 290 290 290 290 290 290 290 290 291 292 292 293 293 293 293 292 291 290 289 288 287 286 285 284 283 283 282 282 281 280 279 278 278 277 276 275 275 275 274 273 272 271 271 270 269 267 267 267 268 268 268 268 267 265 263 262 262 261 261 261 261 261 261 261 260 259 259 260 261 261 262 263 264 265 265 266 266 267
289 289 289 289 290 290 290 290 291 291 291 291 291 292 293 294 294 294 294 293 293 292 291 290 289 289 288 287 286 285 284 283 282 282 281 281 281 281 281 280 279 278 278 277 277 276 275 274 274 273 272 272 271 269 269 269 269 269 268 268 267 266 264 263 262 262 262 261 261 261 261 261 261 260 259 259 259 260 260 261 262 263 263 264 265
289 290 290 290 290 291 291 290 290 290 290 291 292 293 294 294 294 294 293 292 291 291 290 290 289 289 288 288 287 287 286 285 284 283 282 282 281 281 281 281 280 280 279 279 278 277 277 276 276 275 274 273 272 271 269 269 269 268 268 268 268 267 267 265 264 263 263 262 261 260 260 260 261 261 261 260 259 259 259 259 260 260 261 261 262
291 291 291 291 291 291 290 290 291 292 292 293 293 293 293 293 293 293 293 292 292 291 291 291 290 290 289 289 289 288 288 287 287 286 285 284 283 282 281 281 281 281 280 280 279 279 278 277 276 276 274 273 272 271 270 269 268 268 268 268 268 267 267 267 266 265 263 262 262 262 260 260 259 260 261 262 261 260 259 258 258 258 259 259 260
290 290 290 290 291 292 294 295 297 297 297 296 295 294 294 295 295 295 295 294 294 294 293 293 292 292 291 290 290 289 288 288 287 287 287 286 285 284 283 282 281 280 279 279 279 279 278 277 276 275 274 273 273 271 270 269 268 268 267 267 267 267 266 266 266 266 265 264 263 262 262 262 261 260 260 260 261 261 260 259 259 258 257 257 258
287 287 287 288 291 294 297 299 301 300 298 297 297 297 297 298 298 297 297 296 295 294 294 293 293 292 291 290 290 289 289 289 288 288 287 286 286 285 284 283 282 280 279 278 277 277 277 277 276 275 274 273 272 271 270 269 268 267 266 266 266 265 265 265 265 265 265 265 264 263 263 263 262 261 260 259 259 260 261 261 260 259 258 257 256
285 283 283 285 289 294 297 299 300 300 299 298 298 299 299 298 298 297 296 295 295 294 294 293 292 292 291 291 291 290 290 289 289 288 287 286 285 285 284 283 282 282 281 279 278 277 276 275 275 274 273 272 272 271 270 269 268 266 265 265 264 264 263 263 263 262 262 263 263 262 261 261 262 262 261 260 259 258 259 259 260 261 261 260 258
289 286 283 283 286 291 295 298 299 299 299 299 300 300 299 298 298 297 297 296 296 295 294 294 293 292 292 291 291 291 290 289 288 288 287 286 286 285 284 284 283 282 281 280 279 278 276 275 274 273 272 272 271 270 270 269 268 267 266 265 264 263 262 262 261 261 261 261 261 261 260 259 260 260 260 259 259 258 258 258 258 258 259 260 260
297 297 292 288 288 292 296 298 299 299 300 301 300 300 299 299 298 298 297 297 296 295 295 294 293 293 293 292 292 292 291 290 290 289 288 288 287 286 285 284 284 283 282 280 279 278 276 275 274 272 272 271 270 270 269 268 267 266 265 264 264 263 262 262 261 261 260 260 260 260 259 258 258 258 258 257 257 257 257 257 257 257 256 257 258
303 303 300 296 295 295 297 299 300 301 301 300 300 299 299 298 298 297 297 296 296 296 296 296 296 296 295 295 294 293 292 292 291 290 289 288 287 287 285 284 283 282 282 280 279 278 277 276 275 274 272 271 270 269 268 267 267 266 265 264 263 262 261 261 261 260 260 260 259 258 258 257 258 258 257 256 255 255 256 256 256 256 255 255 255
303 302 301 299 299 299 299 300 301 301 300 299 299 298 298 298 297 297 297 297 297 297 297 297 297 296 295 295 294 293 293 292 291 290 289 288 287 286 285 284 283 282 282 281 280 279 278 277 276 275 273 272 270 269 268 267 266 265 264 264 263 262 261 260 259 259 259 259 259 258 257 256 256 256 256 254 254 254 254 255 255 254 255 254 254
301 301 300 300 300 301 301 301 301 300 300 300 300 300 299 299 298 298 298 298 298 298 297 297 297 296 296 295 294 293 292 291 290 289 288 287 286 285 285 284 284 283 283 281 280 279 279 278 276 275 274 272 271 270 269 267 266 265 264 264 263 262 261 260 259 258 257 257 258 258 257 255 254 254 254 254 254 253 253 253 253 253 253 253 253
301 301 301 302 303 303 303 302 302 302 302 302 301 301 300 300 300 300 300 300 300 300 299 299 298 298 296 295 294 292 291 290 289 288 287 287 287 286 286 285 285 284 282 281 281 281 280 279 278 276 275 273 272 270 269 268 267 266 265 263 262 261 261 260 259 257 256 256 256 256 256 255 254 254 253 252 253 253 252 252 252 252 252 252 252
305 305 306 306 306 306 305 305 304 304 304 303 303 302 302 303 302 302 302 302 301 301 300 299 298 297 296 294 293 292 291 290 289 289 289 289 288 288 288 287 286 285 283 283 283 283 282 281 280 278 276 275 273 271 270 268 267 266 264 263 261 261 260 260 259 258 257 256 256 255 255 253 253 253 253 252 251 251 252 252 252 251 251 251 251
Height
5915 5915 5915 5915 5914 5913 5913 5913 5912 5912 5912 5912 5912 5911 5911 5911 5912 5912 5911 5911 5911 5911 5910 5910 5909 5908 5908 5907 5908 5908 5908 5909 5909 5908 5908 5908 5908 5909 5910 5910 5911 5911 5912 5912 5912 5912 5913 5914 5914 5915 5916 5916 5917 5918 5918 5919 5919 5919 5920 5920 5919 5919 5920 5920 5920 5920 5921 5921 5921 5922 5922 5923 5923 5923 5924 5925 5925 5926 5926 5926 5927 5927 5928 5928 5929
5915 5915 5915 5914 5913 5913 5912 5912 5911 5911 5911 5912 5911 5911 5910 5910 5911 5911 5911 5910 5910 5910 5910 5910 5909 5909 5908 5907 5908 5908 5908 5909 5909 5909 5908 5908 5908 5909 5909 5910 5911 5912 5912 5913 5913 5913 5913 5914 5914 5915 5915 5916 5917 5917 5918 5918 5918 5919 5919 5919 5919 5919 5919 5919 5920 5920 5920 5921 5921 5921 5922 5922 5923 5923 5923 5924 5924 5925 5925 5926 5926 5927 5927 5928 5929
5915 5914 5913 5913 5912 5912 5911 5911 5910 5910 5910 5910 5910 5910 5910 5909 5910 5910 5910 5909 5910 5910 5910 5909 5909 5909 5909 5908 5908 5908 5908 5908 5909 5909 5909 5908 5908 5908 5909 5910 5911 5912 5912 5913 5913 5913 5914 5914 5914 5915 5915 5916 5916 5917 5917 5918 5918 5918 5919 5919 5919 5919 5919 5919 5920 5920 5920 5920 5921 5921 5922 5922 5922 5923 5923 5924 5924 5925 5925 5926 5926 5927 5927 5928 5928
5914 5913 5912 5912 5911 5911 5911 5910 5910 5909 5909 5909 5909 5909 5909 5908 5908 5909 5909 5909 5908 5909 5909 5909 5909 5909 5909 5908 5908 5908 5908 5908 5909 5909 5909 5909 5909 5908 5908 5909 5910 5911 5912 5913 5913 5913 5914 5914 5914 5915 5915 5916 5916 5917 5917 5918 5918 5918 5919 5919 5919 5919 5919 5920 5920 5920 5920 5921 5921 5921 5922 5922 5922 5923 5923 5924 5924 5924 5925 5926 5926 5927 5927 5928 5928
5913 5912 5911 5911 5911 5910 5910 5909 5909 5908 5908 5907 5907 5907 5907 5907 5907 5907 5908 5907 5907 5908 5908 5908 5908 5908 5909 5908 5908 5908 5908 5908 5909 5909 5909 5909 5909 5909 5908 5909 5909 5911 5912 5913 5913 5914 5914 5914 5914 5915 5915 5916 5916 5917 5917 5918 5918 5918 5919 5919 5919 5919 5919 5920 5920 5920 5920 5921 5921 5921 5922 5922 5922 5923 5923 5923 5924 5924 5925 5925 5926 5926 5927 5927 5928
5912 5911 5911 5910 5910 5910 5909 5908 5908 5907 5906 5906 5905 5905 5905 5906 5906 5906 5907 5906 5906 5907 5907 5907 5908 5908 5908 5908 5908 5908 5908 5908 5908 5909 5909 5909 5909 5909 5909 5909 5909 5910 5911 5912 5913 5913 5914 5914 5914 5915 5915 5915 5916 5917 5917 5918 5918 5918 5919 5919 5919 5919 5919 5920 5920 5920 5920 5921 5921 5921 5922 5922 5922 5922 5923 5923 5924 5924 5924 5925 5925 5926 5926 5927 5927
5910 5910 5910 5910 5910 5910 5909 5908 5907 5906 5905 5904 5904 5904 5904 5904 5904 5905 5906 5906 5906 5906 5906 5907 5907 5907 5907 5908 5908 5908 5907 5908 5908 5909 5909 5909 5909 5909 5909 5909 5909 5909 5910 5911 5912 5913 5913 5914 5915 5915 5915 5916 5916 5916 5917 5917 5918 5918 5919 5919 5919 5919 5919 5920 5920 5920 5920 5921 5921 5921 5921 5922 5922 5922 5923 5923 5923 5924 5924 5925 5925 5926 5926 5926 5927
5909 5909 5909 5909 5909 5909 5908 5907 5906 5905 5904 5903 5903 5902 5902 5902 5902 5903 5904 5904 5905 5906 5906 5906 5907 5907 5907 5907 5907 5907 5907 5907 5907 5908 5909 5909 5909 5909 5909 5910 5910 5910 5910 5910 5911 5912 5913 5913 5914 5915 5916 5916 5916 5916 5917 5917 5917 5918 5918 5918 5919 5919 5919 5919 5920 5920 5920 5921 5921 5921 5921 5922 5922 5922 5922 5923 5923 5924 5924 5925 5925 5925 5926 5926 5927
5907 5907 5908 5907 5907 5908 5907 5906 5905 5904 5903 5903 5902 5900 5899 5900 5900 5901 5901 5902 5903 5904 5905 5905 5906 5906 5906 5906 5907 5907 5907 5907 5907 5907 5908 5908 5909 5909 5909 5909 5910 5910 5910 5910 5910 5911 5912 5913 5913 5914 5915 5916 5916 5917 5917 5917 5917 5917 5918 5918 5918 5919 5919 5919 5920 5920 5920 5920 5921 5921 5921 5922 5922 5922 5922 5922 5923 5923 5924 5924 5925 5925 5925 5926 5926
5904 5906 5906 5905 5905 5906 5905 5905 5904 5903 5903 5902 5900 5899 5898 5899 5899 5899 5900 5900 5901 5902 5903 5904 5904 5905 5905 5906 5906 5906 5906 5906 5907 5907 5907 5907 5908 5908 5909 5909 5910 5910 5910 5910 5910 5911 5911 5912 5913 5913 5914 5915 5916 5916 5916 5917 5917 5917 5917 5918 5918 5918 5919 5919 5919 5920 5920 5920 5920 5921 5921 5921 5922 5922 5922 5922 5922 5923 5923 5923 5924 5924 5924 5925 5925
5903 5903 5903 5903 5902 5903 5904 5904 5904 5903 5902 5900 5899 5898 5897 5897 5897 5898 5898 5899 5900 5900 5901 5903 5903 5904 5904 5905 5905 5906 5906 5906 5906 5906 5907 5907 5907 5907 5908 5908 5909 5909 5909 5909 5909 5910 5910 5911 5912 5912 5913 5914 5915 5916 5916 5916 5916 5917 5917 5917 5917 5918 5918 5919 5919 5919 5920 5920 5920 5920 5921 5921 5921 5921 5921 5921 5922 5922 5922 5922 5923 5923 5923 5924 5924
5902 5902 5901 5900 5901 5902 5902 5903 5903 5902 5901 5900 5899 5898 5897 5896 5896 5896 5897 5898 5899 5900 5901 5902 5902 5903 5904 5904 5904 5905 5905 5905 5905 5905 5906 5906 5906 5907 5907 5907 5908 5908 5908 5909 5909 5909 5910 5910 5910 5911 5912 5913 5913 5914 5915 5915 5916 5916 5917 5917 5917 5917 5918 5918 5918 5919 5919 5919 5920 5920 5920 5920 5920 5920 5920 5921 5921 5921 5921 5921 5922 5922 5922 5923 5923
5903 5902 5900 5899 5900 5901 5901 5902 5902 5901 5900 5899 5898 5897 5896 5897 5896 5895 5896 5897 5899 5900 5900 5900 5901 5902 5903 5903 5904 5904 5904 5904 5904 5905 5905 5906 5906 5906 5906 5907 5907 5907 5907 5908 5908 5909 5909 5909 5909 5910 5910 5911 5912 5913 5913 5914 5915 5915 5916 5916 5916 5917 5917 5917 5918 5918 5918 5919 5919 5919 5919 5919 5919 5919 5920 5920 5920 5920 5920 5920 5921 5921 5921 5922 5922
5903 5902 5900 5899 5900 5901 5901 5901 5901 5900 5899 5898 5898 5897 5897 5897 5897 5897 5897 5898 5898 5899 5899 5899 5900 5901 5902 5903 5903 5903 5903 5904 5904 5904 5905 5905 5905 5905 5905 5905 5906 5906 5907 5907 5907 5908 5908 5908 5909 5909 5909 5910 5910 5911 5912 5912 5913 5914 5915 5915 5915 5916 5916 5916 5917 5917 5917 5918 5918 5918 5918 5918 5918 5918 5918 5919 5919 5919 5919 5919 5919 5920 5920 5920 5921
5904 5903 5902 5901 5902 5902 5902 5901 5900 5899 5899 5898 5899 5898 5898 5898 5898 5898 5898 5898 5898 5898 5899 5899 5900 5900 5901 5902 5902 5903 5903 5903 5903 5903 5904 5904 5904 5904 5904 5904 5905 5905 5906 5906 5906 5906 5907 5907 5908 5908 5908 5909 5909 5909 5910 5910 5911 5912 5913 5913 5914 5914 5915 5915 5915 5916 5916 5916 5916 5916 5917 5917 5917 5917 5917 5917 5917 5917 5918 5918 5918 5918 5918 5919 5919
5903 5902 5901 5902 5902 5902 5901 5900 5899 5899 5899 5899 5899 5898 5898 5899 5899 5899 5899 5899 5899 5899 5900 5900 5900 5900 5901 5901 5901 5902 5902 5902 5902 5903 5903 5903 5903 5903 5904 5904 5904 5904 5905 5905 5905 5905 5905 5906 5906 5907 5907 5908 5908 5908 5909 5909 5909 5910 5911 5912 5912 5913 5913 5913 5914 5914 5914 5915 5915 5915 5915 5915 5915 5915 5916 5916 5916 5916 5916 5916 5916 5917 5917 5917 5917
5902 5902 5901 5901 5902 5901 5901 5900 5900 5899 5899 5899 5899 5899 5899 5900 5900 5900 5900 5899 5900 5900 5900 5900 5900 5901 5901 5901 5901 5901 5901 5901 5902 5902 5902 5902 5902 5902 5902 5903 5903 5903 5903 5904 5904 5904 5904 5904 5905 5905 5906 5906 5907 5907 5907 5908 5908 5909 5909 5910 5910 5911 5911 5912 5912 5912 5912 5913 5913 5913 5914 5914 5914 5914 5914 5914 5914 5914 5914 5914 5915 5915 5915 5915 5916
5902 5902 5902 5901 5901 5901 5901 5901 5900 5900 5900 5900 5900 5900 5900 5901 5901 5901 5900 5900 5900 5901 5901 5901 5901 5900 5901 5901 5901 5901 5901 5901 5901 5901 5901 5901 5901 5901 5901 5901 5902 5902 5902 5902 5903 5903 5903 5903 5903 5904 5904 5904 5905 5906 5906 5906 5906 5907 5908 5908 5908 5909 5909 5910 5910 5910 5910 5911 5911 5911 5912 5912 5912 5912 5912 5912 5912 5912 5912 5913 5913 5913 5913 5913 5914
5902 5903 5903 5902 5902 5902 5901 5901 5901 5900 5901 5901 5901 5901 5902 5902 5902 5902 5901 5901 5902 5902 5902 5901 5901 5901 5901 5901 5901 5901 5901 5900 5900 5900 5900 5900 5900 5900 5900 5900 5900 5900 5900 5901 5901 5902 5902 5902 5902 5902 5903 5903 5903 5904 5904 5904 5905 5905 5906 5906 5906 5907 5907 5907 5908 5908 5908 5909 5909 5909 5909 5910 5910 5910 5910 5910 5910 5911 5911 5911 5911 5911 5911 5911 5911
5901 5902 5903 5902 5902 5902 5901 5901 5901 5901 5902 5902 5902 5902 5903 5903 5903 5903 5902 5902 5903 5903 5902 5902 5902 5902 5901 5901 5900 5900 5900 5900 5900 5900 5900 5900 5899 5899 5899 5899 5899 5899 5899 5899 5900 5900 5900 5900 5901 5901 5901 5901 5901 5901 5902 5902 5903 5903 5904 5904 5904 5904 5905 5905 5905 5906 5906 5907 5907 5907 5907 5908 5908 5908 5908 5908 5908 5908 5908 5908 5908 5909 5909 5909 5909
5901 5901 5902 5902 5902 5902 5902 5902 5902 5903 5903 5903 5903 5903 5903 5903 5903 5903 5903 5903 5903 5903 5902 5902 5902 5902 5902 5901 5900 5900 5900 5900 5900 5899 5899 5899 5899 5898 5898 5898 5898 5898 5898 5898 5898 5898 5898 5898 5898 5899 5899 5899 5899 5899 5899 5900 5900 5901 5901 5901 5901 5902 5902 5903 5903 5903 5904 5904 5905 5905 5905 5905 5906 5906 5906 5906 5906 5906 5906 5906 5906 5906 5906 5906 5907
5900 5900 5901 5901 5902 5902 5902 5903 5903 5903 5903 5903 5903 5903 5903 5903 5903 5903 5903 5903 5903 5903 5903 5903 5903 5902 5902 5901 5901 5900 5900 5899 5899 5899 5898 5898 5898 5898 5898 5897 5897 5897 5897 5897 5897 5897 5896 5896 5896 5896 5896 5896 5896 5897 5897 5897 5898 5898 5898 5898 5899 5899 5899 5900 5901 5901 5901 5902 5902 5903 5903 5903 5903 5903 5903 5904 5904 5904 5904 5904 5904 5904 5904 5904 5905
5899 5899 5900 5901 5902 5902 5902 5903 5903 5902 5902 5903 5903 5903 5903 5903 5903 5903 5903 5902 5902 5902 5902 5902 5902 5902 5901 5901 5900 5900 5900 5900 5899 5899 5898 5897 5897 5896 5897 5896 5895 5895 5895 5895 5895 5895 5895 5894 5894 5894 5894 5894 5894 5894 5895 5895 5895 5895 5895 5896 5896 5896 5897 5897 5898 5898 5899 5899 5900 5900 5900 5900 5900 5901 5901 5901 5901 5901 5901 5902 5902 5902 5902 5903 5904
5899 5899 5900 5901 5901 5901 5902 5902 5902 5902 5902 5902 5902 5903 5903 5903 5903 5902 5902 5902 5902 5901 5901 5901 5901 5900 5900 5900 5900 5900 5899 5899 5899 5898 5897 5896 5896 5896 5895 5895 5894 5893 5894 5894 5893 5893 5893 5892 5892 5892 5892 5892 5892 5892 5892 5892 5892 5892 5892 5893 5893 5894 5894 5895 5895 5896 5896 5896 5897 5897 5897 5897 5897 5898 5898 5898 5898 5899 5899 5899 5899 5900 5900 5901 5902
5899 5899 5900 5900 5901 5901 5901 5901 5901 5901 5901 5901 5902 5902 5902 5902 5902 5902 5901 5901 5901 5900 5900 5900 5899 5899 5899 5899 5898 5898 5898 5898 5897 5896 5896 5895 5895 5894 5894 5894 5893 5892 5892 5892 5892 5892 5891 5890 5890 5890 5890 5889 5889 5889 5889 5889 5889 5889 5889 5890 5890 5891 5891 5892 5892 5893 5893 5893 5893 5893 5894 5894 5894 5895 5895 5895 5896 5896 5896 5897 5897 5898 5898 5899 5899
5899 5899 5899 5899 5900 5900 5900 5900 5900 5901 5901 5901 5900 5900 5900 5900 5900 5900 5900 5900 5899 5899 5898 5898 5898 5897 5897 5897 5897 5896 5896 5896 5895 5894 5894 5893 5893 5893 5892 5892 5892 5891 5890 5890 5890 5890 5889 5888 5888 5888 5887 5887 5887 5887 5887 5887 5887 5886 5886 5887 5887 5887 5888 5888 5888 5889 5889 5890 5890 5890 5890 5891 5891 5891 5892 5892 5893 5893 5893 5893 5894 5895 5895 5896 5897
5899 5899 5899 5899 5899 5899 5899 5899 5900 5900 5900 5899 5899 5899 5899 5899 5898 5898 5898 5898 5898 5897 5897 5896 5896 5895 5895 5895 5894 5894 5894 5893 5893 5892 5892 5891 5891 5890 5890 5890 5890 5889 5889 5888 5888 5887 5886 5886 5886 5885 5885 5884 5884 5884 5884 5884 5884 5883 5883 5884 5884 5883 5884 5884 5885 5885 5886 5886 5886 5887 5887 5887 5888 5888 5888 5889 5890 5890 5890 5890 5890 5891 5892 5893 5893
5898 5898 5898 5898 5898 5898 5898 5898 5898 5898 5898 5898 5898 5898 5898 5897 5897 5897 5896 5896 5895 5895 5894 5894 5893 5893 5893 5892 5892 5891 5891 5890 5890 5889 5889 5888 5888 5887 5887 5887 5887 5887 5886 5886 5886 5885 5884 5883 5883 5882 5881 5881 5881 5881 5881 5881 5880 5880 5880 5880 5880 5880 5880 5880 5880 5881 5882 5882 5883 5883 5883 5884 5884 5884 5885 5885 5886 5886 5887 5887 5887 5888 5889 5890 5890
5898 5898 5898 5898 5897 5897 5897 5897 5897 5897 5897 5896 5896 5896 5896 5895 5895 5894 5894 5893 5892 5892 5891 5891 5890 5890 5890 5889 5889 5888 5888 5887 5887 5886 5886 5885 5884 5884 5884 5883 5883 5884 5883 5883 5882 5881 5880 5879 5879 5878 5878 5878 5879 5878 5878 5877 5877 5876 5876 5877 5877 5876 5876 5876 5877 5877 5877 5878 5878 5879 5879 5880 5880 5880 5881 5881 5882 5882 5883 5884 5884 5885 5885 5886 5886
5897 5897 5897 5897 5896 5896 5896 5896 5895 5895 5895 5894 5894 5894 5893 5892 5892 5891 5891 5890 5889 5889 5888 5887 5887 5887 5886 5886 5885 5884 5884 5883 5883 5882 5882 5881 5880 5880 5879 5879 5879 5879 5879 5879 5879 5877 5875 5874 5875 5875 5874 5874 5874 5875 5874 5873 5873 5872 5873 5873 5873 5873 5873 5873 5873 5873 5873 5874 5874 5875 5875 5875 5876 5876 5877 5878 5878 5879 5880 5880 5881 5881 5881 5882 5883
5896 5896 5896 5895 5895 5894 5894 5894 5893 5893 5892 5892 5891 5891 5890 5889 5888 5888 5887 5886 5885 5885 5884 5884 5883 5882 5882 5881 5881 5880 5879 5879 5878 5877 5877 5876 5876 5875 5875 5874 5874 5873 5874 5874 5875 5874 5872 5870 5869 5869 5869 5869 5869 5870 5870 5869 5869 5869 5869 5869 5869 5869 5870 5870 5870 5870 5870 5870 5870 5871 5871 5872 5872 5872 5873 5873 5874 5875 5876 5876 5877 5877 5876 5877 5879
5895 5894 5894 5893 5893 5892 5892 5891 5891 5890 5890 5889 5888 5887 5887 5886 5885 5884 5883 5882 5881 5881 5880 5879 5879 5878 5877 5876 5876 5875 5874 5873 5873 5872 5871 5871 5870 5870 5869 5869 5868 5868 5868 5868 5869 5870 5869 5866 5865 5864 5863 5864 5864 5864 5865 5865 5864 5864 5865 5865 5865 5865 5865 5865 5866 5866 5866 5866 5866 5867 5867 5868 5868 5869 5869 5869 5870 5871 5871 5871 5872 5872 5871 5872 5874
5892 5892 5892 5891 5890 5890 5889 5888 5887 5887 5886 5885 5884 5883 5883 5882 5881 5880 5879 5878 5877 5876 5875 5875 5874 5873 5873 5871 5871 5870 5869 5869 5868 5867 5866 5865 5865 5864 5863 5863 5863 5862 5862 5863 5863 5864 5864 5862 5861 5859 5858 5858 5859 5859 5859 5859 5859 5859 5859 5860 5860 5860 5860 5860 5860 5861 5861 5862 5862 5863 5863 5864 5865 5865 5866 5866 5865 5866 5867 5867 5868 5867 5868 5870 5871
5890 5889 5889 5888 5887 5887 5886 5885 5884 5883 5882 5881 5880 5879 5878 5877 5876 5875 5874 5873 5872 5871 5870 5869 5868 5868 5867 5866 5865 5865 5864 5863 5862 5862 5861 5860 5859 5858 5857 5857 5857 5856 5856 5856 5857 5858 5858 5857 5856 5855 5854 5853 5853 5853 5853 5853 5854 5853 5854 5854 5854 5855 5855 5855 5855 5855 5856 5856 5857 5858 5859 5860 5860 5861 5862 5862 5862 5862 5862 5863 5863 5862 5864 5867 5867
5887 5886 5886 5885 5884 5883 5882 5881 5880 5879 5878 5877 5876 5875 5874 5873 5872 5871 5870 5869 5868 5867 5865 5864 5863 5862 5862 5860 5859 5858 5858 5857 5856 5855 5855 5854 5853 5853 5852 5851 5850 5850 5849 5849 5850 5850 5851 5851 5850 5849 5849 5848 5847 5847 5846 5847 5847 5848 5848 5848 5848 5849 5849 5849 5850 5850 5850 5851 5852 5853 5854 5855 5856 5856 5857 5858 5858 5858 5858 5859 5859 5859 5860 5863 5863
5884 5883 5882 5881 5880 5879 5878 5877 5876 5875 5874 5873 5872 5871 5870 5868 5867 5866 5865 5864 5863 5862 5861 5860 5859 5857 5856 5855 5854 5853 5852 5852 5850 5849 5849 5848 5847 5847 5846 5845 5844 5844 5843 5843 5843 5843 5844 5845 5844 5844 5843 5843 5842 5841 5840 5840 5841 5841 5842 5842 5843 5843 5844 5844 5844 5845 5845 5845 5846 5847 5848 5849 5850 5851 5852 5853 5854 5854 5853 5854 5856 5856 5857 5859 5860
5881 5880 5879 5877 5876 5875 5874 5873 5872 5871 5870 5869 5868 5867 5865 5864 5863 5862 5861 5859 5858 5857 5856 5855 5854 5853 5852 5850 5849 5848 5847 5846 5845 5844 5843 5842 5841 5841 5840 5839 5839 5838 5837 5837 5837 5837 5837 5838 5838 5838 5837 5837 5837 5836 5834 5833 5834 5835 5836 5836 5837 5837 5838 5838 5839 5839 5840 5840 5841 5841 5842 5843 5844 5845 5847 5848 5848 5849 5849 5849 5851 5852 5853 5854 5856
5877 5876 5875 5874 5873 5872 5870 5869 5868 5867 5866 5865 5864 5862 5861 5860 5859 5858 5856 5855 5854 5852 5851 5849 5848 5847 5846 5845 5844 5843 5842 5840 5839 5838 5837 5836 5835 5834 5834 5833 5832 5832 5831 5831 5830 5830 5830 5831 5831 5831 5831 5831 5831 5830 5829 5828 5828 5828 5829 5829 5830 5831 5831 5832 5833 5833 5834 5834 5835 5835 5836 5837 5838 5839 5840 5842 5843 5843 5844 5844 5845 5846 5847 5849 5850
5873 5872 5871 5870 5869 5868 5867 5866 5864 5863 5862 5861 5859 5858 5857 5856 5854 5853 5852 5850 5849 5847 5846 5844 5843 5842 5840 5839 5838 5837 5836 5835 5834 5833 5831 5830 5829 5828 5828 5827 5826 5825 5825 5825 5824 5824 5824 5824 5824 5824 5824 5824 5824 5824 5823 5822 5822 5822 5822 5822 5823 5824 5824 5825 5826 5827 5827 5828 5829 5829 5830 5831 5831 5833 5834 5835 5837 5837 5838 5839 5840 5841 5842 5843 5844
5869 5868 5867 5866 5865 5864 5863 5862 5860 5859 5858 5856 5855 5854 5852 5851 5850 5848 5847 5845 5844 5842 5841 5839 5838 5836 5835 5834 5832 5831 5830 5829 5828 5827 5826 5825 5824 5823 5822 5820 5819 5819 5818 5818 5817 5817 5817 5817 5817 5817 5817 5817 5817 5817 5816 5816 5816 5815 5815 5815 5816 5817 5817 5818 5820 5820 5820 5821 5822 5823 5824 5824 5825 5826 5827 5829 5830 5831 5832 5833 5834 5835 5836 5837 5838
5865 5864 5863 5862 5861 5860 5859 5857 5856 5855 5853 5852 5850 5849 5848 5846 5845 5843 5842 5840 5839 5837 5836 5834 5832 5831 5829 5828 5826 5825 5823 5822 5821 5820 5819 5818 5818 5817 5816 5815 5813 5812 5811 5811 5810 5810 5810 5810 5809 5809 5809 5809 5809 5809 5809 5809 5809 5808 5808 5808 5809 5810 5810 5811 5812 5813 5813 5814 5815 5816 5817 5818 5819 5820 5821 5822 5823 5824 5825 5826 5828 5829 5830 5832 5833
5862 5860 5859 5858 5857 5856 5854 5853 5852 5851 5849 5847 5846 5844 5843 5841 5840 5838 5837 5835 5834 5832 5830 5828 5827 5825 5823 5822 5820 5819 5817 5816 5815 5814 5812 5811 5810 5809 5809 5808 5807 5806 5805 5804 5802 5802 5802 5802 5802 5801 5801 5801 5801 5800 5801 5801 5801 5801 5801 5801 5802 5803 5803 5804 5805 5805 5805 5807 5808 5809 5810 5810 5812 5814 5815 5816 5816 5816 5818 5819 5821 5823 5824 5826 5828
5858 5857 5856 5855 5853 5852 5850 5849 5848 5846 5844 5843 5841 5839 5838 5836 5835 5833 5832 5830 5828 5827 5825 5823 5821 5819 5818 5816 5814 5812 5811 5809 5808 5807 5805 5804 5802 5801 5800 5799 5798 5797 5797 5796 5795 5794 5794 5793 5793 5792 5792 5792 5792 5792 5792 5792 5792 5793 5793 5794 5794 5795 5795 5797 5798 5798 5797 5798 5800 5803 5804 5804 5805 5807 5809 5809 5810 5810 5811 5812 5813 5815 5817 5819 5821
5854 5852 5851 5850 5849 5848 5847 5845 5844 5842 5840 5838 5837 5835 5833 5832 5830 5829 5827 5825 5823 5822 5820 5818 5816 5814 5812 5810 5808 5806 5804 5802 5801 5799 5798 5797 5795 5794 5792 5791 5790 5789 5788 5787 5787 5787 5786 5785 5785 5784 5784 5783 5783 5783 5783 5783 5783 5784 5785 5785 5786 5787 5788 5789 5790 5791 5790 5791 5793 5795 5797 5797 5798 5799 5802 5803 5803 5804 5805 5805 5807 5808 5810 5812 5814
5849 5847 5846 5846 5845 5844 5842 5841 5839 5838 5836 5834 5832 5831 5829 5827 5825 5824 5822 5820 5818 5816 5813 5811 5809 5807 5805 5803 5801 5799 5797 5796 5794 5792 5791 5789 5788 5786 5785 5783 5782 5781 5780 5779 5778 5778 5777 5777 5777 5776 5775 5775 5775 5775 5774 5774 5775 5775 5776 5777 5777 5778 5780 5781 5782 5783 5783 5784 5785 5787 5789 5791 5791 5792 5794 5795 5796 5797 5798 5800 5801 5802 5804 5805 5807
5845 5844 5843 5842 5841 5840 5838 5837 5835 5833 5832 5830 5828 5826 5824 5822 5820 5818 5816 5814 5812 5809 5807 5805 5803 5801 5799 5797 5795 5793 5791 5788 5786 5785 5783 5782 5780 5779 5777 5776 5774 5772 5771 5770 5769 5768 5768 5768 5768 5768 5767 5766 5766 5766 5765 5765 5765 5766 5767 5768 5769 5770 5771 5772 5774 5775 5775 5776 5777 5779 5782 5784 5783 5784 5787 5788 5788 5790 5792 5793 5795 5796 5797 5799 5800
5842 5841 5840 5838 5837 5836 5834 5833 5831 5829 5828 5826 5824 5822 5819 5817 5815 5813 5811 5808 5806 5804 5801 5799 5797 5795 5792 5790 5788 5786 5784 5781 5779 5777 5775 5774 5772 5771 5770 5768 5766 5764 5763 5761 5760 5759 5759 5759 5759 5758 5758 5758 5757 5757 5756 5755 5756 5757 5757 5759 5760 5761 5762 5764 5765 5767 5767 5768 5769 5771 5775 5777 5776 5777 5780 5781 5781 5783 5785 5786 5788 5789 5791 5793 5794
5839 5838 5837 5835 5834 5832 5830 5829 5827 5825 5823 5821 5819 5817 5815 5812 5810 5808 5806 5804 5801 5799 5796 5793 5791 5788 5786 5783 5781 5779 5777 5774 5772 5769 5768 5766 5765 5764 5762 5761 5759 5757 5755 5753 5751 5750 5750 5750 5749 5749 5749 5749 5748 5748 5747 5747 5747 5747 5748 5749 5751 5751 5753 5755 5757 5758 5759 5760 5760 5762 5766 5769 5768 5769 5771 5773 5774 5776 5778 5779 5781 5782 5784 5786 5788
5836 5835 5833 5832 5830 5828 5826 5825 5823 5821 5819 5816 5814 5812 5809 5807 5805 5803 5801 5798 5796 5793 5791 5787 5784 5782 5779 5776 5774 5772 5769 5767 5765 5762 5760 5758 5757 5756 5754 5753 5751 5750 5747 5744 5742 5742 5741 5741 5740 5740 5740 5740 5739 5738 5738 5738 5737 5737 5738 5740 5741 5741 5743 5746 5748 5750 5750 5752 5753 5754 5757 5760 5760 5761 5762 5764 5766 5769 5771 5772 5773 5775 5777 5779 5781
5833 5831 5829 5828 5826 5824 5821 5819 5818 5815 5813 5811 5809 5806 5804 5802 5800 5798 5795 5792 5790 5787 5784 5781 5778 5775 5772 5769 5767 5764 5762 5760 5758 5755 5752 5750 5749 5748 5746 5745 5744 5742 5739 5736 5735 5734 5733 5732 5732 5731 5731 5730 5730 5729 5729 5728 5728 5728 5729 5731 5732 5732 5734 5737 5739 5741 5742 5744 5745 5745 5747 5751 5752 5752 5754 5757 5759 5762 5764 5765 5766 5768 5770 5772 5774
5829 5827 5825 5823 5821 5819 5816 5814 5812 5810 5808 5805 5804 5801 5799 5796 5794 5791 5789 5786 5783 5781 5778 5775 5772 5769 5765 5762 5759 5756 5754 5752 5750 5747 5745 5743 5741 5740 5738 5737 5736 5734 5732 5730 5729 5727 5726 5725 5724 5723 5722 5721 5720 5720 5720 5719 5719 5719 5719 5721 5722 5723 5725 5727 5729 5731 5734 5737 5737 5736 5738 5743 5743 5743 5746 5750 5753 5755 5756 5757 5759 5760 5762 5765 5767